Wind_Speed
13 16 19 24 28 31 30 23 21 20 19 13 6 2 4 8 15 20 25 22 17 18 22 23 19 16 16 16 21 26 25 24 22 21 23 25 18 16 15 11 10 13 10 15
13 16 21 26 29 34 31 29 28 25 22 20 17 8 8 2 10 15 17 24 20 16 19 19 17 17 16 19 21 18 19 16 20 19 21 22 20 16 17 12 11 9 9 12
14 18 23 29 33 36 32 32 34 31 23 19 25 19 10 4 0 7 10 15 21 19 16 15 16 16 19 21 17 17 17 17 18 21 26 22 21 20 16 15 10 10 11 11
18 19 25 31 36 37 36 34 35 33 31 28 18 17 13 9 5 1 7 10 17 22 17 16 12 9 15 20 23 26 24 25 26 26 27 26 26 24 20 16 15 11 13 10
22 20 24 33 33 37 39 38 34 34 31 30 25 20 14 13 12 5 4 6 12 15 20 15 17 12 6 9 13 19 25 29 28 30 29 30 28 24 24 19 17 11 13 10
28 25 26 34 31 34 38 38 34 33 30 28 27 23 21 18 16 8 6 4 7 7 5 10 11 12 10 8 9 11 13 18 24 26 30 33 29 27 22 20 16 13 10 8
27 29 26 30 30 31 36 39 37 33 28 27 25 27 26 20 17 13 7 4 6 7 3 5 8 10 9 8 6 9 9 9 14 18 19 22 25 24 18 15 14 13 9 9
27 27 24 28 30 30 34 39 40 36 32 28 29 31 28 22 20 18 11 10 9 6 4 2 4 10 13 14 11 6 4 5 5 10 16 17 13 12 13 13 11 11 10 12
25 26 27 26 28 31 33 37 41 37 33 29 33 35 31 27 23 23 19 19 13 10 6 4 4 6 12 11 11 12 9 5 5 5 5 9 12 12 11 12 12 13 13 13
23 28 26 25 27 31 34 34 34 32 35 32 31 39 33 29 23 22 20 24 19 20 15 9 7 3 9 11 10 9 8 8 6 2 3 7 10 12 13 13 13 14 14 14
26 27 27 24 22 25 32 37 36 34 31 31 30 36 35 31 23 23 20 22 23 25 23 17 13 10 6 13 12 7 4 2 3 5 6 5 6 6 8 10 12 13 14 13
27 26 23 22 21 20 24 29 33 34 34 34 36 34 37 35 25 24 26 24 22 23 29 26 17 15 7 12 16 14 8 7 7 7 7 5 4 4 3 6 8 7 6 8
25 24 22 20 20 21 21 26 29 33 35 37 35 37 36 39 29 26 27 28 26 26 27 26 23 18 12 8 9 9 11 11 10 9 7 7 6 7 8 9 10 12 10 5
27 26 23 20 18 19 18 20 24 27 31 34 35 35 30 42 42 33 28 27 27 28 29 26 25 22 20 15 14 12 11 12 11 10 10 10 11 13 14 9 11 11 7 5
19 21 21 19 19 19 17 16 18 23 29 31 31 29 27 34 46 45 36 28 32 31 30 30 30 28 25 17 14 14 13 15 15 16 12 12 14 15 16 20 16 18 16 9
17 19 21 21 21 20 18 16 17 20 24 27 29 28 28 29 42 45 45 40 35 34 35 29 30 29 26 23 21 18 21 20 18 20 22 19 17 19 21 20 22 27 23 21
18 19 20 22 23 20 19 18 16 20 24 26 28 30 30 30 36 50 48 48 45 38 37 35 35 36 37 33 30 25 25 29 28 28 28 26 26 25 21 25 29 29 30 24
8 11 13 14 15 18 24 25 25 27 28 27 27 28 29 30 33 33 39 53 54 52 48 50 49 47 42 42 41 40 36 34 34 37 36 36 35 41 41 34 33 37 37 36
7 6 7 10 9 9 15 18 22 24 26 26 27 27 26 28 30 32 35 37 40 49 59 57 53 50 52 51 48 50 49 48 46 47 47 51 56 55 57 58 47 43 44 41
6 6 5 3 6 5 5 6 9 11 14 17 18 20 21 22 23 23 22 25 31 34 38 47 53 59 60 61 63 63 62 65 62 65 69 70 70 69 68 62 60 57 55 55
6 5 6 6 9 9 7 5 5 5 7 8 6 4 3 5 5 7 11 15 19 22 24 29 35 40 46 51 54 57 61 63 66 64 63 65 65 70 68 62 61 59 61 61
8 9 10 8 7 7 9 9 9 8 8 6 5 4 2 1 3 5 9 10 11 12 14 18 21 25 30 34 38 42 47 53 56 56 54 55 52 49 49 52 55 61 63 64
7 8 8 6 5 7 6 4 5 5 5 4 3 1 1 3 6 9 10 10 11 12 13 16 18 21 24 27 30 32 35 37 37 37 38 39 41 43 45 46 48 50 53 57
6 8 8 7 4 4 4 2 1 1 1 1 2 3 4 7 10 12 12 13 15 15 15 18 20 20 22 24 26 28 30 33 32 32 30 30 30 30 34 38 42 46 51 56
5 5 7 8 7 4 3 2 2 2 1 1 2 2 4 6 9 13 15 16 15 14 14 13 15 18 20 20 19 20 23 23 23 23 20 18 17 23 24 24 28 35 43 49
7 7 7 6 7 8 7 6 6 5 5 6 6 7 8 12 14 14 17 18 16 14 12 15 15 15 16 16 16 16 16 18 19 19 21 20 22 23 24 23 25 24 25 29
Wind_Direction
254 244 229 222 207 203 197 215 196 216 241 244 198 331 333 74 53 52 58 65 96 123 141 141 144 146 148 155 172 198 208 214 216 218 215 205 220 235 269 250 270 303 308 196
254 236 223 218 207 202 207 196 192 221 238 240 249 262 267 270 73 56 51 56 66 107 133 156 182 185 180 171 173 180 187 199 199 201 212 221 231 260 254 253 283 301 273 208
244 228 214 215 210 207 204 193 201 217 232 244 258 259 233 247 143 87 69 55 57 62 74 116 143 160 180 192 207 218 226 223 223 226 231 241 244 246 253 254 270 280 246 218
236 222 214 216 213 213 212 204 215 218 232 242 223 217 231 222 234 187 95 72 67 54 61 68 79 131 177 190 200 207 215 222 219 222 228 229 244 240 248 258 269 249 229 228
234 225 217 223 213 216 214 215 221 229 238 240 244 239 229 234 238 218 156 108 71 61 53 59 62 64 94 169 200 210 217 227 231 229 236 238 245 237 238 250 258 237 219 231
224 218 213 223 223 213 217 217 221 227 233 238 245 243 241 236 231 225 203 169 134 85 57 36 40 67 66 105 159 185 209 227 232 233 233 236 239 248 241 252 239 221 222 244
223 220 213 218 223 216 217 216 224 227 230 236 238 235 234 219 233 231 226 229 177 133 37 330 8 31 50 51 114 146 173 210 224 226 229 238 236 232 230 225 211 215 237 251
224 219 217 214 216 213 216 214 213 222 232 234 235 235 229 225 226 241 225 237 228 190 200 8 358 326 354 2 26 51 110 109 83 198 209 217 219 214 203 201 212 222 231 247
224 216 216 212 207 210 214 214 212 221 226 231 235 233 229 223 221 243 246 247 235 267 230 144 254 294 324 333 357 17 30 42 75 92 167 183 183 191 208 219 221 225 240 254
217 216 217 213 206 208 209 214 216 220 227 234 238 232 220 222 217 244 238 239 251 241 255 237 223 260 291 310 322 359 1 359 355 9 174 200 205 212 222 225 231 248 266 268
213 213 214 216 209 206 210 217 217 219 228 236 249 239 228 216 219 235 248 237 228 243 251 254 252 258 252 292 289 285 296 305 328 322 294 283 260 252 258 258 261 268 273 274
212 213 212 213 209 211 206 213 219 220 224 238 247 246 232 212 215 236 247 243 248 237 238 246 257 265 256 278 285 275 283 287 303 317 296 297 289 247 218 256 260 257 278 290
204 206 209 212 213 213 209 206 211 215 224 233 237 242 230 217 214 229 246 241 242 245 237 243 244 249 228 243 280 277 266 278 285 286 296 316 278 246 223 218 222 214 205 220
202 202 207 214 221 223 219 214 214 220 222 232 234 235 231 228 224 222 230 238 238 239 235 233 243 251 244 246 250 263 257 252 261 258 266 277 289 298 287 274 251 245 240 211
213 209 210 216 225 229 225 228 228 230 231 236 242 237 228 232 232 230 228 234 239 236 238 242 253 248 241 242 252 260 261 256 248 269 287 292 296 301 287 295 282 271 262 247
204 206 211 216 224 228 228 221 227 234 236 237 239 244 232 228 228 236 236 233 239 244 243 241 248 248 258 243 241 252 253 257 264 265 271 288 290 293 274 287 274 273 260 255
213 212 214 219 224 230 239 235 225 231 236 238 239 241 248 245 225 226 236 235 236 237 243 245 244 251 259 252 246 241 254 264 266 266 274 281 288 295 289 282 286 285 277 259
207 215 219 225 229 229 233 237 232 233 238 236 239 242 246 251 254 248 239 239 242 247 244 249 248 255 260 253 253 255 250 252 256 260 262 269 273 283 290 286 283 283 278 277
123 142 186 207 218 231 235 238 241 243 246 250 254 259 261 261 262 264 263 262 257 252 252 253 252 257 259 259 259 260 258 264 266 265 262 269 277 278 283 282 279 277 281 276
134 158 188 150 111 141 189 203 213 229 237 242 247 248 252 257 263 269 273 272 272 274 270 264 265 263 263 263 266 271 271 275 275 277 280 280 279 276 279 278 275 269 268 271
153 145 145 150 156 169 176 170 142 153 169 178 206 226 243 268 277 275 268 271 274 276 270 270 271 269 269 271 271 273 276 276 277 279 279 281 280 277 276 274 269 266 269 263
118 127 144 158 145 123 116 122 139 145 145 141 139 144 147 31 320 289 273 264 270 275 282 283 279 275 275 275 278 280 282 281 280 280 281 278 281 278 277 276 269 263 265 260
126 126 146 158 129 120 130 134 134 134 140 132 117 72 337 298 289 282 283 295 301 301 302 291 283 280 281 282 282 280 280 281 281 286 287 289 289 289 286 282 276 269 265 261
156 145 151 179 179 160 167 171 174 271 290 304 277 288 298 298 299 308 323 317 315 312 306 300 297 295 292 290 287 283 280 280 281 287 297 300 298 299 297 291 285 278 269 262
201 188 184 184 199 198 178 171 223 257 333 294 298 309 310 314 319 335 327 316 308 302 298 295 299 303 303 301 301 294 289 286 287 287 296 304 307 318 317 306 285 278 274 273
220 220 228 230 218 211 212 219 237 259 272 282 293 302 312 307 303 316 312 316 304 298 299 304 317 323 324 329 319 315 308 301 294 284 295 296 296 305 321 328 336 330 321 299
Height
10948 10950 10951 10954 10956 10960 10966 10967 10969 10971 10973 10978 10980 10982 10982 10981 10979 10975 10971 10969 10967 10968 10969 10972 10977 10981 10985 10987 10991 10996 10999 11001 11004 11006 11010 11012 11015 11017 11019 11020 11019 11019 11018 11017
10944 10946 10946 10948 10953 10957 10962 10965 10968 10970 10972 10976 10977 10981 10982 10982 10982 10980 10978 10975 10973 10972 10971 10972 10975 10979 10983 10988 10992 10996 10999 11002 11003 11005 11008 11011 11013 11015 11017 11018 11017 11017 11017 11016
10938 10941 10943 10943 10948 10952 10958 10962 10965 10968 10971 10973 10976 10979 10979 10980 10982 10982 10981 10979 10978 10978 10976 10976 10976 10978 10981 10984 10989 10993 10996 10999 11002 11004 11006 11009 11011 11013 11015 11015 11015 11014 11015 11014
10933 10937 10939 10939 10944 10948 10954 10959 10962 10966 10968 10971 10973 10976 10977 10979 10980 10982 10983 10983 10982 10980 10981 10981 10980 10980 10980 10982 10985 10989 10993 10996 10998 11001 11004 11005 11007 11009 11011 11011 11012 11012 11012 11013
10927 10932 10935 10933 10940 10944 10948 10954 10959 10961 10965 10969 10970 10974 10977 10978 10978 10982 10983 10984 10984 10983 10983 10984 10982 10982 10981 10979 10981 10984 10988 10991 10994 10996 10999 11001 11003 11005 11007 11008 11009 11009 11010 11010
10919 10925 10929 10927 10935 10943 10945 10949 10955 10958 10961 10963 10964 10968 10970 10974 10977 10981 10983 10984 10984 10984 10984 10985 10985 10983 10983 10980 10979 10979 10983 10986 10988 10991 10994 10997 11000 11002 11003 11004 11006 11008 11008 11008
10915 10919 10925 10928 10932 10938 10943 10947 10951 10955 10958 10958 10959 10961 10964 10971 10974 10978 10981 10982 10983 10984 10985 10985 10985 10983 10983 10982 10979 10978 10978 10981 10982 10985 10989 10993 10996 10998 11000 11002 11004 11007 11007 11005
10909 10915 10921 10924 10928 10934 10938 10943 10949 10951 10953 10954 10953 10956 10961 10969 10970 10973 10977 10981 10981 10984 10985 10984 10985 10985 10984 10983 10982 10980 10980 10980 10981 10984 10987 10990 10994 10996 10998 11001 11003 11005 11004 11004
10904 10911 10914 10920 10924 10929 10933 10938 10945 10947 10948 10948 10947 10950 10957 10964 10968 10968 10972 10976 10979 10980 10982 10981 10983 10984 10983 10983 10983 10981 10981 10981 10981 10983 10987 10988 10991 10995 10999 11001 11003 11003 11002 11002
10900 10904 10910 10916 10921 10925 10929 10933 10939 10942 10943 10943 10943 10944 10952 10957 10964 10965 10968 10970 10973 10975 10977 10980 10981 10982 10982 10981 10981 10981 10982 10983 10984 10985 10986 10988 10990 10993 10997 10999 11000 11001 11002 11002
10894 10899 10906 10912 10918 10921 10925 10928 10933 10937 10939 10940 10937 10938 10947 10954 10961 10961 10963 10966 10969 10972 10973 10976 10978 10980 10980 10980 10981 10981 10982 10984 10986 10987 10988 10989 10991 10993 10996 10998 10998 10999 11001 11001
10888 10895 10902 10907 10912 10915 10919 10922 10925 10930 10932 10932 10930 10933 10942 10950 10956 10959 10960 10962 10965 10968 10970 10972 10975 10977 10978 10978 10980 10981 10983 10984 10985 10986 10988 10989 10990 10991 10992 10993 10993 10994 10997 10998
10885 10891 10897 10902 10906 10909 10912 10916 10919 10921 10923 10924 10928 10929 10939 10945 10951 10954 10955 10959 10962 10963 10966 10969 10972 10974 10976 10976 10977 10979 10981 10983 10984 10984 10986 10987 10988 10988 10988 10987 10987 10986 10986 10988
10880 10886 10892 10897 10901 10905 10910 10914 10916 10918 10917 10917 10923 10928 10935 10940 10944 10949 10949 10953 10956 10959 10962 10964 10967 10970 10971 10972 10975 10976 10977 10979 10980 10980 10982 10983 10985 10986 10986 10986 10985 10985 10985 10985
10881 10886 10890 10894 10897 10900 10906 10909 10912 10913 10912 10914 10917 10925 10931 10934 10937 10942 10947 10949 10951 10953 10956 10959 10964 10966 10969 10971 10971 10972 10974 10976 10977 10977 10977 10979 10981 10983 10984 10982 10980 10980 10980 10979
10877 10882 10886 10889 10892 10896 10900 10904 10907 10908 10908 10910 10912 10916 10924 10928 10931 10934 10940 10945 10946 10949 10951 10954 10957 10960 10964 10966 10966 10968 10971 10971 10972 10972 10973 10973 10975 10975 10975 10974 10972 10971 10971 10972
10873 10877 10881 10885 10889 10893 10896 10900 10903 10903 10903 10904 10907 10910 10915 10920 10926 10930 10933 10938 10943 10946 10947 10948 10950 10953 10957 10960 10961 10960 10963 10964 10964 10964 10964 10965 10967 10968 10967 10966 10965 10966 10967 10968
10872 10875 10879 10882 10885 10889 10890 10893 10897 10897 10897 10900 10902 10906 10910 10914 10918 10924 10928 10931 10934 10937 10940 10942 10945 10947 10949 10950 10952 10953 10954 10955 10954 10955 10954 10954 10955 10957 10958 10959 10957 10955 10955 10957
10872 10874 10877 10879 10881 10885 10887 10890 10891 10892 10895 10898 10901 10903 10907 10909 10913 10916 10920 10923 10926 10928 10930 10933 10936 10938 10939 10939 10940 10942 10941 10943 10943 10944 10945 10946 10945 10945 10947 10948 10946 10946 10943 10943
10873 10875 10878 10879 10882 10884 10885 10886 10888 10889 10891 10894 10896 10899 10902 10905 10908 10910 10912 10914 10916 10918 10918 10921 10922 10923 10923 10924 10924 10925 10927 10927 10928 10926 10924 10925 10925 10924 10925 10926 10930 10929 10930 10931
10875 10877 10878 10880 10882 10884 10885 10887 10889 10890 10891 10892 10894 10897 10900 10902 10905 10906 10907 10908 10909 10910 10910 10909 10909 10910 10910 10908 10906 10907 10910 10913 10912 10908 10905 10903 10902 10903 10903 10905 10908 10911 10913 10913
10877 10878 10880 10881 10882 10885 10886 10887 10888 10890 10891 10893 10895 10897 10899 10901 10903 10904 10905 10907 10907 10906 10905 10903 10902 10900 10898 10897 10897 10896 10894 10893 10893 10892 10890 10889 10886 10885 10884 10884 10886 10889 10890 10893
10878 10880 10881 10882 10883 10885 10886 10887 10889 10891 10892 10894 10895 10897 10899 10901 10901 10901 10902 10902 10901 10900 10899 10897 10896 10894 10893 10891 10889 10887 10885 10883 10881 10880 10876 10874 10872 10869 10867 10866 10865 10866 10867 10868
10879 10880 10882 10883 10884 10885 10887 10888 10889 10890 10892 10894 10896 10897 10899 10899 10899 10898 10897 10897 10897 10896 10896 10892 10890 10890 10888 10886 10884 10881 10878 10875 10873 10869 10867 10863 10861 10859 10855 10852 10848 10845 10844 10843
10880 10881 10882 10883 10884 10885 10886 10887 10889 10890 10891 10892 10894 10895 10896 10896 10896 10895 10895 10894 10893 10892 10892 10890 10888 10886 10883 10881 10877 10874 10870 10867 10864 10862 10861 10859 10856 10854 10850 10845 10839 10834 10829 10823
10878 10880 10881 10882 10884 10885 10886 10887 10888 10889 10890 10891 10892 10893 10893 10892 10893 10894 10892 10891 10889 10887 10887 10885 10884 10882 10879 10876 10872 10868 10865 10862 10860 10858 10856 10854 10852 10850 10845 10838 10830 10823 10817 10809